Starlink 30781

operational
NORAD ID: 58123 Int'l Des: 2023-162 Owner: SPXS Country: US Constellation: starlink
LEOCIRCULAR

Starlink 30781について

説明を読み込み中...

リアルタイム位置

3D地球を読み込み中...

次回通過

高度履歴

Altitude vs Time

uPlot chart will show altitude changes over time

軌道要素

1 58123U 23162F 25352.34284540 -.00000049 00000-0 11464-4 0 9994
2 58123 43.0037 215.0811 0001199 255.7501 104.3208 15.02539436120066
Epoch: Dec 18, 2025 • Age: 22 hours

現在のステータス

高度 559.2 km
速度 7.58 km/s
衛星直下点 -1.93°S, 21.56°E
打ち上げ日 Oct 22, 2023
運用期間 2.1 years
タイプ internet

技術仕様

分類 Payload
質量 730.00 kg
乾燥質量 700.00 kg
総質量 730.00 kg
長さ 0.30 m
直径 4.10 m
スパン 29.00 m
形状 Box + pan
製造者 SPXS
バスタイプ Starlink V2M
フェーズステータス In Orbit
所有者/国 SPXS/US

大規模コンステレーション

Loading constellations...